Lapse_Rate
6.0 6.0 6.1 6.1 6.2 6.2 6.3 6.4 6.4 6.3 6.2 6.2 6.1 6.2 6.2 6.2 6.3 6.3 6.3 6.3 6.2 6.3 6.2 6.1 5.9 5.8 5.7 5.5 5.5 5.7 6.0 6.4 6.7 7.0 7.1 7.0 6.8 6.4 6.2 6.2 6.0 6.0 6.1
5.9 6.0 6.1 6.1 6.0 6.0 6.1 6.2 6.3 6.3 6.2 6.2 6.2 6.1 6.1 6.0 5.9 5.9 5.9 6.0 5.8 5.7 5.5 5.3 5.1 4.9 4.8 4.9 5.0 5.1 5.3 5.6 5.9 6.4 6.9 6.9 6.7 6.6 6.4 6.3 6.4 6.0 6.1
5.9 6.0 5.9 5.9 5.9 6.0 6.1 6.0 6.0 6.0 6.0 6.0 6.0 6.0 5.9 5.8 5.6 5.5 5.4 5.2 5.1 4.9 4.5 4.1 3.9 3.8 3.6 3.5 3.5 3.6 4.0 4.4 5.1 5.7 6.0 6.8 6.5 6.3 6.1 6.3 6.1 6.3 6.1
5.8 5.7 5.7 5.8 5.9 5.9 5.9 5.9 5.9 5.9 5.9 5.9 5.9 5.8 5.7 5.7 5.5 5.4 5.1 5.0 4.7 4.4 4.1 3.8 3.7 3.5 3.4 3.3 3.4 3.4 3.3 3.3 3.8 4.5 5.3 5.6 6.2 5.6 5.6 5.9 6.1 6.1 6.3
5.6 5.6 5.7 5.8 5.8 5.8 5.8 5.7 5.7 5.7 5.7 5.7 5.7 5.6 5.6 5.5 5.5 5.2 5.0 4.6 4.3 4.0 3.7 3.4 3.2 3.1 3.2 3.3 3.4 3.4 3.5 3.6 3.6 3.6 4.0 4.3 4.5 5.0 5.1 5.6 5.4 5.9 6.2
5.5 5.5 5.7 5.7 5.7 5.7 5.7 5.6 5.5 5.5 5.5 5.5 5.5 5.5 5.7 5.6 5.3 4.9 4.6 4.2 3.6 3.0 2.5 2.4 2.5 2.7 2.7 3.0 3.3 3.6 3.9 4.0 4.1 3.9 3.6 3.7 3.8 4.0 4.5 5.0 5.5 5.9 5.5
5.5 5.6 5.6 5.5 5.4 5.5 5.5 5.4 5.5 5.4 5.4 5.3 5.4 5.5 5.7 5.5 5.1 4.5 3.9 2.7 1.7 0.7 0.7 1.4 1.6 2.1 3.0 4.0 5.0 6.2 6.9 6.6 6.6 6.2 5.7 5.4 4.1 4.0 4.1 4.7 5.3 5.5 5.9
5.5 5.5 5.5 5.3 5.4 5.4 5.3 5.2 5.0 5.0 5.0 4.8 4.7 4.7 4.9 4.9 4.0 3.2 2.5 2.5 1.9 1.4 1.4 2.0 2.7 3.8 4.5 4.9 6.4 7.4 7.3 7.1 7.3 7.3 6.8 6.7 6.7 6.0 5.0 4.7 5.1 5.5 6.1
5.4 5.4 5.3 5.3 5.4 5.4 5.2 5.1 4.9 4.7 4.8 4.7 4.3 3.7 3.8 3.7 3.4 3.3 2.8 2.1 1.2 1.2 2.3 4.0 4.2 4.2 4.4 5.3 6.8 7.4 7.2 7.6 7.5 7.6 7.6 7.1 6.9 6.5 6.3 5.5 5.4 5.2 5.3
5.3 5.2 5.3 5.3 5.3 5.1 5.1 4.9 4.6 4.6 4.5 4.2 3.7 3.2 2.6 2.4 2.3 3.0 2.5 2.1 1.2 2.5 3.8 4.0 4.1 4.6 5.2 5.7 6.4 6.8 7.0 7.2 7.1 7.2 7.1 7.3 6.8 6.5 6.6 6.2 5.7 5.5 5.3
5.2 5.3 5.3 5.2 5.0 4.9 4.8 4.7 4.7 4.5 4.1 3.7 3.4 2.9 2.6 2.3 1.8 1.1 1.4 2.5 3.6 3.9 3.9 4.1 4.7 5.1 5.3 5.6 6.1 6.4 6.9 7.1 6.9 6.7 7.0 7.1 6.8 6.8 6.8 6.3 5.9 5.7 5.4
5.2 5.2 5.2 5.1 4.8 4.7 4.7 4.8 4.7 4.3 3.8 3.4 3.0 2.7 2.5 2.2 1.6 1.1 1.5 2.8 3.3 4.1 4.6 4.9 5.1 5.1 5.4 5.6 5.9 6.4 6.8 6.9 6.9 7.3 7.3 7.1 7.1 6.8 6.8 6.6 6.1 5.6 5.5
5.2 5.2 5.1 4.9 4.7 4.7 4.8 4.7 4.5 4.1 3.7 3.2 2.9 2.7 2.4 2.0 1.6 2.2 2.9 3.0 3.4 4.6 5.2 5.6 5.1 5.4 5.5 5.5 5.7 6.1 6.2 6.5 7.0 7.3 7.2 7.0 6.8 7.0 6.9 6.5 6.1 5.7 5.6
5.2 5.2 5.0 4.9 4.7 4.7 4.8 4.6 4.4 4.1 3.5 3.1 2.9 2.6 2.3 2.0 2.6 3.4 3.3 3.0 3.2 4.8 5.4 5.4 5.3 5.4 5.4 5.4 5.6 5.9 6.4 6.8 7.0 7.0 7.0 7.2 7.3 7.4 7.0 6.7 6.3 5.8 5.8
5.2 5.1 4.9 4.8 4.7 4.8 4.7 4.5 4.3 4.0 3.4 3.0 2.8 2.6 2.4 2.6 3.6 3.8 3.6 3.4 3.2 4.6 5.8 5.8 5.8 5.3 5.3 5.5 5.8 5.9 6.4 6.9 7.0 6.8 6.7 6.7 6.7 6.8 7.1 6.9 6.6 5.8 5.4
5.1 5.0 4.8 4.7 4.7 4.8 4.6 4.5 4.3 3.8 3.3 3.0 2.8 2.7 2.9 3.5 4.4 4.1 3.9 3.7 4.0 4.6 5.7 5.4 5.7 5.4 5.4 5.5 5.5 5.9 6.4 6.7 6.6 6.4 6.6 6.7 6.8 7.0 7.0 6.6 6.4 6.0 5.9
5.1 5.0 4.7 4.8 4.8 4.8 4.6 4.5 4.1 3.7 3.3 3.0 2.8 3.1 3.7 4.5 4.9 4.4 4.1 4.0 4.3 4.6 5.4 5.9 5.3 5.2 5.3 5.3 5.6 6.1 6.4 6.6 6.7 6.7 6.8 6.8 6.7 7.2 6.9 6.8 6.6 6.2 6.2
5.1 4.9 4.7 4.8 4.8 4.7 4.7 4.4 4.1 3.7 3.3 3.0 2.8 3.6 4.5 5.2 5.3 5.0 4.5 4.3 4.6 4.8 5.0 5.4 5.3 5.2 5.3 5.3 5.9 6.3 6.0 6.1 6.4 6.6 6.5 6.6 6.2 6.8 6.5 7.1 6.7 6.6 6.4
5.0 4.8 4.7 4.8 4.8 4.7 4.6 4.4 3.9 3.8 3.4 2.9 3.0 4.2 5.1 5.6 5.7 5.4 4.9 4.7 4.9 5.1 4.9 4.8 5.4 5.3 5.6 5.6 6.2 5.8 6.0 6.4 6.3 6.3 5.8 6.4 6.9 7.2 7.0 6.9 7.0 6.8 6.8
5.0 4.8 4.8 4.8 4.8 4.7 4.6 4.4 3.8 3.8 3.5 3.3 3.7 4.6 5.3 5.8 6.0 5.6 5.4 5.2 5.3 5.2 5.0 4.9 5.2 5.7 6.0 5.8 5.6 6.0 6.3 6.1 6.2 6.0 6.1 6.4 7.0 7.4 7.4 7.1 7.3 6.9 6.8
4.9 4.9 4.8 4.8 4.8 4.7 4.6 4.2 3.9 4.0 3.7 3.6 4.1 4.9 5.5 5.9 6.1 5.6 5.3 5.3 5.2 5.0 4.8 4.9 5.4 5.8 5.7 5.7 5.5 5.7 6.1 6.5 6.1 5.8 6.1 6.9 6.8 6.8 7.0 7.2 6.7 7.0 6.8
5.0 4.9 4.8 4.8 4.8 4.6 4.6 4.2 3.9 4.0 3.6 3.9 4.6 5.2 5.8 5.9 6.1 6.0 5.5 5.3 5.1 4.9 4.7 4.9 5.4 5.8 5.8 5.3 5.5 5.6 6.0 6.1 6.2 5.7 6.2 6.5 6.8 6.9 6.6 6.4 6.5 7.2 7.1
5.0 4.9 4.8 4.8 4.7 4.6 4.5 4.1 4.0 3.9 3.8 4.4 5.1 5.4 5.9 5.7 5.9 6.1 5.7 5.4 5.2 4.8 4.6 4.8 5.3 5.4 5.7 5.1 5.3 5.7 5.8 6.2 5.4 5.4 5.7 6.0 5.9 6.1 7.1 6.1 6.3 6.2 7.3
5.0 4.9 4.7 4.8 4.7 4.6 4.5 4.2 3.9 3.7 4.0 4.9 5.3 5.5 5.8 5.7 5.6 5.9 6.0 5.8 5.6 5.1 4.9 5.0 5.3 5.5 5.4 5.2 5.2 5.7 6.0 6.3 5.7 5.2 5.3 5.7 5.6 5.7 6.3 6.5 6.4 6.6 7.1
4.9 4.8 4.7 4.7 4.7 4.6 4.4 4.2 3.8 3.5 4.0 5.0 5.4 5.7 5.7 5.5 5.6 5.6 5.9 5.9 5.8 5.3 5.1 5.1 5.3 5.5 5.0 5.1 5.5 5.8 5.8 5.9 5.9 5.5 5.5 5.6 5.6 5.8 6.3 6.2 5.9 6.0 6.9
4.8 4.8 4.8 4.7 4.8 4.5 4.4 4.0 3.5 3.3 3.7 4.8 5.4 5.8 5.8 5.3 5.4 5.4 5.6 5.8 5.9 5.6 5.5 5.4 5.2 5.3 4.9 5.2 5.2 5.4 5.6 5.8 5.5 5.9 5.4 5.5 5.4 5.3 5.7 6.1 5.9 5.8 5.9
Wind_Speed
6 10 10 11 10 13 11 11 12 11 10 12 14 13 14 15 16 16 16 23 26 29 30 31 31 31 31 31 31 31 32 33 34 34 33 31 31 30 28 34 32 33 35
8 8 7 7 9 12 13 12 9 7 6 10 10 13 14 15 17 17 19 20 28 31 30 30 30 31 32 33 33 34 33 32 33 34 36 33 32 32 32 30 36 35 37
8 6 5 5 8 11 12 11 9 9 5 8 7 11 13 15 16 19 20 20 21 25 30 30 30 30 32 33 33 33 33 33 34 35 36 34 33 33 33 32 33 37 38
8 7 4 4 9 11 10 7 3 6 5 5 6 7 7 13 17 19 19 19 19 19 21 26 28 30 33 34 32 32 33 33 34 36 36 35 34 35 35 35 31 37 39
7 6 4 6 10 9 6 4 4 3 5 6 8 8 8 8 9 14 15 16 16 18 18 19 26 29 30 31 32 33 33 33 33 31 31 36 40 37 35 35 34 32 42
5 5 5 6 9 4 4 3 4 4 3 5 9 8 8 8 7 8 6 14 17 20 18 20 20 18 26 31 32 34 33 33 33 33 33 35 32 37 40 36 36 33 36
4 3 3 4 6 4 4 5 4 5 6 6 5 10 8 8 7 6 4 10 9 21 16 17 19 18 20 26 31 34 34 36 35 34 36 34 34 36 35 39 36 33 34
2 1 1 1 3 3 4 4 4 3 2 4 5 9 5 6 2 11 12 9 12 15 11 20 19 25 22 21 25 33 34 35 34 36 37 38 33 32 33 35 38 34 33
1 1 0 1 2 1 2 3 3 4 4 3 3 2 5 4 16 4 11 8 9 7 8 16 23 22 25 23 26 27 31 32 35 35 37 36 36 32 32 33 33 36 31
0 1 2 2 2 2 3 3 4 3 2 6 2 3 5 9 9 15 1 10 10 10 13 10 12 20 23 22 27 29 31 31 34 34 34 34 36 32 31 33 32 33 33
1 3 2 1 2 2 2 4 4 4 2 3 3 4 5 6 8 10 16 16 14 11 10 10 13 10 22 22 20 19 33 31 32 32 33 34 34 32 29 30 34 33 33
1 2 2 2 4 3 3 3 4 5 4 4 4 4 6 7 8 10 12 14 16 15 11 11 12 11 15 18 22 32 31 33 34 34 34 34 32 31 29 29 35 34 33
1 3 1 3 2 4 6 5 4 4 5 4 5 5 6 7 8 9 11 13 12 13 13 11 9 10 14 16 21 31 31 34 33 33 33 34 31 30 30 31 35 34 32
2 2 1 3 5 6 6 6 3 4 5 4 7 6 7 7 7 8 9 11 14 14 13 17 10 11 10 16 24 34 23 30 31 32 31 33 31 30 30 32 34 32 30
2 0 3 3 5 6 6 5 3 5 5 5 5 6 5 6 7 8 7 8 10 14 15 14 13 12 11 16 22 24 20 28 31 31 30 30 30 29 29 35 32 24 27
0 2 3 4 5 5 5 5 4 4 5 4 5 7 8 7 8 7 8 8 8 10 15 11 13 15 14 13 24 22 20 31 29 28 28 31 31 29 32 30 27 21 22
0 2 4 4 5 5 5 5 5 6 5 6 6 8 10 10 8 8 8 8 9 9 13 13 12 14 17 16 16 16 18 14 12 23 28 29 27 33 28 25 21 22 23
1 2 4 4 5 5 5 5 6 6 7 8 9 9 12 9 11 11 9 11 10 11 11 17 14 13 15 16 16 16 14 11 10 21 30 27 23 26 21 20 18 24 24
2 3 4 5 5 5 6 6 6 7 8 8 9 10 12 12 12 10 11 11 10 10 10 12 14 13 12 12 14 14 14 12 10 23 25 21 29 22 18 18 19 23 27
3 4 5 5 5 6 6 6 8 9 8 9 10 11 12 12 14 13 12 11 9 9 10 11 12 11 11 13 10 12 13 10 12 14 18 19 25 19 18 15 15 19 26
3 4 5 5 5 6 5 7 8 8 7 7 10 11 11 14 24 20 11 10 10 8 9 9 10 11 12 12 12 12 12 13 14 9 8 13 9 7 6 9 11 13 19
3 3 5 5 6 6 16 17 15 9 7 8 9 11 11 17 16 22 23 24 18 12 11 9 10 11 15 12 12 12 11 12 11 9 11 13 9 9 6 6 16 19 19
3 4 5 5 6 6 17 18 18 9 8 8 11 11 11 9 16 12 19 22 20 22 21 14 13 12 14 14 14 14 13 12 13 14 10 11 5 11 9 7 17 18 16
3 4 5 5 5 7 16 17 18 6 7 10 11 12 12 13 13 15 14 13 12 13 11 9 11 12 12 12 13 13 14 11 11 10 4 6 8 11 9 7 14 15 11
3 3 4 5 6 7 16 18 16 6 8 10 11 11 11 13 20 24 16 11 10 12 13 19 21 23 23 24 19 11 10 10 11 11 3 5 4 9 4 5 9 16 15
3 4 6 5 10 8 16 18 16 6 8 8 11 12 18 18 25 26 16 11 9 11 9 11 9 15 16 14 18 9 8 9 9 7 2 8 5 3 5 3 9 7 10
Wind_Direction
60 40 27 19 18 8 3 352 346 341 340 344 344 340 336 333 329 326 319 317 318 315 313 311 308 305 302 298 293 288 284 282 279 276 274 273 273 273 269 250 234 226 219
63 46 23 13 10 3 359 353 340 338 341 341 337 336 331 329 325 323 321 315 315 315 314 312 310 307 306 302 297 291 287 282 276 273 271 269 269 270 266 259 242 229 223
66 51 27 6 359 0 355 350 341 348 343 337 331 332 329 327 324 318 315 312 312 318 317 315 312 308 303 297 294 290 286 282 279 275 272 268 264 263 266 260 251 235 226
66 48 24 356 357 0 359 350 356 346 340 333 327 324 325 322 316 313 315 320 318 312 312 316 317 315 307 303 300 296 293 292 288 284 276 269 266 263 261 261 251 246 230
71 52 23 358 5 3 359 355 344 338 335 334 325 323 317 309 303 312 315 326 333 327 327 336 329 326 321 313 301 291 292 290 287 287 282 279 270 263 263 260 256 246 238
71 38 19 16 9 2 349 347 343 335 327 319 322 313 311 298 301 303 321 342 333 332 321 324 324 320 324 315 307 302 292 295 290 289 287 284 280 272 263 257 259 245 254
84 37 39 19 4 2 345 346 329 335 335 335 323 326 306 287 272 310 315 322 318 318 309 319 314 323 316 311 311 307 301 295 290 289 285 281 287 280 268 262 255 254 239
106 109 53 4 357 354 350 344 345 328 313 3 331 315 335 302 78 336 303 305 307 306 310 316 314 310 305 305 299 298 296 292 290 289 286 280 280 282 280 268 259 256 250
172 181 337 308 324 341 327 323 318 338 321 338 355 335 328 303 317 264 301 296 297 288 298 311 303 299 300 295 297 297 295 293 290 282 281 275 274 280 281 277 267 259 251
175 130 320 293 301 319 319 300 324 321 334 317 309 274 253 291 314 316 274 320 308 303 301 300 298 295 292 296 294 296 302 297 286 283 281 281 281 272 280 278 271 262 253
82 323 328 348 335 329 307 314 315 302 272 281 286 298 284 284 284 288 300 314 309 307 301 301 297 292 297 294 290 301 295 302 300 301 294 286 277 277 280 287 272 265 252
303 328 331 346 327 330 318 302 298 299 289 275 280 283 291 295 299 295 293 298 301 307 304 302 295 289 297 296 299 304 301 302 299 299 294 290 283 276 284 288 286 262 253
272 292 298 334 325 312 308 303 304 295 284 276 278 286 287 286 291 294 295 295 296 307 303 301 303 297 291 298 290 295 297 299 294 292 291 290 290 292 288 290 288 263 249
236 246 331 330 319 318 312 307 295 283 286 284 281 276 283 289 292 293 299 304 302 303 304 302 303 297 293 291 288 299 296 293 292 288 288 290 287 291 285 290 281 265 247
233 45 331 324 319 310 306 301 289 286 283 278 273 274 278 297 294 287 286 289 291 302 301 309 303 298 296 296 296 299 293 288 291 289 290 287 285 288 293 279 278 264 244
184 339 323 315 308 304 301 296 292 287 283 281 292 295 289 288 287 285 282 279 278 284 294 304 302 302 303 301 298 300 294 292 289 290 288 287 291 293 284 274 272 255 259
6 325 314 312 305 300 296 299 292 284 284 283 279 281 286 287 284 283 280 279 280 279 286 296 296 300 303 301 302 301 297 292 284 288 297 295 292 287 278 269 268 261 253
323 314 312 307 301 296 292 291 286 287 276 282 282 279 287 289 287 282 280 279 278 280 280 290 295 300 301 304 300 300 306 303 306 300 306 302 296 283 269 269 276 262 243
328 323 314 302 297 290 288 279 271 273 272 271 274 284 284 286 286 284 281 282 281 278 280 285 293 296 297 303 307 309 315 302 304 305 314 299 308 302 290 278 272 257 230
325 312 300 297 293 289 287 283 275 268 263 271 278 285 283 282 283 283 280 278 277 277 285 290 292 299 304 313 314 314 316 314 319 317 308 297 303 294 294 284 287 282 213
315 307 309 309 299 299 293 290 282 288 286 272 290 288 283 282 292 302 303 300 297 297 293 291 301 304 308 318 316 315 313 317 320 299 305 306 305 292 271 294 293 289 212
330 323 323 309 303 305 310 312 309 309 299 278 290 291 287 291 291 295 301 305 300 303 303 295 298 307 307 306 305 308 312 320 322 324 325 311 306 294 297 311 292 287 261
337 327 313 304 297 293 315 316 314 309 291 283 288 288 291 289 296 289 290 291 290 292 294 300 300 293 294 297 300 301 308 310 309 306 315 312 299 303 304 292 290 283 226
332 314 304 305 303 308 324 320 316 314 294 288 285 283 283 287 287 293 288 280 274 285 283 285 286 287 289 304 309 311 307 304 303 309 289 293 299 293 285 260 301 304 253
325 301 312 320 309 302 323 322 320 314 297 292 286 284 283 286 291 299 300 296 294 297 287 293 299 308 315 312 314 319 323 320 322 320 279 310 288 299 262 315 336 306 217
322 346 328 312 311 312 313 324 324 320 303 298 298 292 294 310 310 311 306 296 284 293 289 293 300 313 313 303 315 318 315 313 325 320 293 323 306 310 319 326 336 320 195